Hourly Weather Abaliget

Today, 25 June, Friday

Time Temperature Precipitation Wind Pressure Humidity
00:00 +25°C° 0 mm 2 mps 744 mmHg 64%
01:00 +24°C° 0 mm 2 mps 744 mmHg 63%
02:00 +24°C° 0 mm 2 mps 744 mmHg 66%
03:00 +23°C° 0 mm 2 mps 744 mmHg 68%
04:00 +23°C° 0 mm 2 mps 744 mmHg 71%
05:00 +24°C° 0 mm 2 mps 745 mmHg 69%
06:00 +25°C° 0 mm 3 mps 745 mmHg 66%
07:00 +26°C° 0 mm 3 mps 746 mmHg 64%
08:00 +27°C° 0 mm 3 mps 746 mmHg 58%
09:00 +29°C° 0 mm 3 mps 746 mmHg 52%
10:00 +31°C° 0 mm 2 mps 746 mmHg 46%
11:00 +33°C° 0 mm 3 mps 745 mmHg 42%
12:00 +34°C° 0 mm 3 mps 745 mmHg 38%
13:00 +35°C° 0 mm 3 mps 745 mmHg 34%
14:00 +35°C° 0 mm 3 mps 744 mmHg 35%
15:00 +34°C° 0 mm 4 mps 744 mmHg 35%
16:00 +34°C° 0 mm 4 mps 743 mmHg 35%
17:00 +29°C° 3.5 mm 4 mps 744 mmHg 55%
18:00 +25°C° 3.5 mm 3 mps 744 mmHg 74%
19:00 +20°C° 3.5 mm 2 mps 745 mmHg 93%
20:00 +20°C° 1.5 mm 2 mps 745 mmHg 92%
21:00 +20°C° 1.5 mm 1 mps 745 mmHg 90%
22:00 +19°C° 1.5 mm 1 mps 745 mmHg 89%
23:00 +19°C° 0.1 mm 1 mps 745 mmHg 90%

Tomorrow, 26 June, Saturday

Time Temperature Precipitation Wind Pressure Humidity
00:00 +19°C° 0.1 mm 1 mps 746 mmHg 92%
01:00 +18°C° 0.1 mm 1 mps 746 mmHg 93%
02:00 +18°C° 0.2 mm 1 mps 746 mmHg 93%
03:00 +18°C° 0.2 mm 1 mps 746 mmHg 94%
04:00 +18°C° 0.2 mm 1 mps 746 mmHg 94%
05:00 +18°C° 0 mm 2 mps 746 mmHg 88%
06:00 +19°C° 0 mm 2 mps 747 mmHg 83%
07:00 +21°C° 0 mm 2 mps 747 mmHg 78%
08:00 +22°C° 0 mm 3 mps 747 mmHg 69%
09:00 +25°C° 0 mm 3 mps 747 mmHg 60%
10:00 +27°C° 0 mm 3 mps 747 mmHg 51%
11:00 +28°C° 0 mm 3 mps 747 mmHg 47%
12:00 +29°C° 0 mm 2 mps 746 mmHg 43%
13:00 +30°C° 0 mm 2 mps 746 mmHg 39%
14:00 +30°C° 0 mm 2 mps 746 mmHg 37%
15:00 +30°C° 0 mm 2 mps 746 mmHg 36%
16:00 +31°C° 0 mm 2 mps 745 mmHg 34%
17:00 +29°C° 0 mm 2 mps 745 mmHg 40%
18:00 +28°C° 0 mm 1 mps 745 mmHg 46%
19:00 +26°C° 0 mm 1 mps 745 mmHg 52%
20:00 +25°C° 0 mm 1 mps 745 mmHg 54%
21:00 +23°C° 0 mm 1 mps 746 mmHg 56%
22:00 +21°C° 0 mm 2 mps 746 mmHg 58%
23:00 +21°C° 0 mm 2 mps 746 mmHg 61%

Day after tomorrow, 27 June, Sunday

Time Temperature Precipitation Wind Pressure Humidity
00:00 +20°C° 0 mm 2 mps 746 mmHg 64%
01:00 +19°C° 0 mm 2 mps 746 mmHg 67%
02:00 +20°C° 0 mm 1 mps 746 mmHg 69%
03:00 +20°C° 0 mm 1 mps 746 mmHg 71%
04:00 +19°C° 0 mm 1 mps 746 mmHg 73%
05:00 +21°C° 0 mm 1 mps 746 mmHg 69%
06:00 +23°C° 0 mm 1 mps 746 mmHg 64%
07:00 +25°C° 0 mm 1 mps 747 mmHg 59%
08:00 +26°C° 0 mm 1 mps 747 mmHg 54%
09:00 +28°C° 0 mm 1 mps 747 mmHg 49%
10:00 +30°C° 0 mm 1 mps 747 mmHg 43%
11:00 +31°C° 0 mm 1 mps 747 mmHg 40%
12:00 +32°C° 0 mm 1 mps 746 mmHg 37%
13:00 +32°C° 0 mm 1 mps 746 mmHg 35%
14:00 +33°C° 0 mm 1 mps 746 mmHg 34%
15:00 +33°C° 0 mm 1 mps 746 mmHg 33%
16:00 +34°C° 0 mm 2 mps 745 mmHg 32%
17:00 +31°C° 0 mm 1 mps 745 mmHg 38%
18:00 +29°C° 0 mm 1 mps 745 mmHg 44%
19:00 +28°C° 0 mm 1 mps 745 mmHg 50%
20:00 +26°C° 0 mm 1 mps 746 mmHg 52%
21:00 +25°C° 0 mm 1 mps 746 mmHg 55%
22:00 +24°C° 0 mm 1 mps 746 mmHg 57%
23:00 +23°C° 0 mm 1 mps 746 mmHg 59%

28 June, Monday

Time Temperature Precipitation Wind Pressure Humidity
00:00 +23°C° 0 mm 1 mps 746 mmHg 61%
01:00 +22°C° 0 mm 1 mps 746 mmHg 63%
02:00 +22°C° 0 mm 1 mps 746 mmHg 64%
03:00 +21°C° 0 mm 1 mps 746 mmHg 65%
04:00 +21°C° 0 mm 1 mps 746 mmHg 66%
05:00 +23°C° 0 mm 1 mps 746 mmHg 61%
06:00 +25°C° 0 mm 1 mps 746 mmHg 56%
07:00 +27°C° 0 mm 1 mps 747 mmHg 52%
08:00 +28°C° 0 mm 1 mps 747 mmHg 46%
09:00 +30°C° 0 mm 2 mps 747 mmHg 41%
10:00 +32°C° 0 mm 2 mps 747 mmHg 36%
11:00 +34°C° 0 mm 3 mps 746 mmHg 33%
12:00 +35°C° 0 mm 3 mps 746 mmHg 30%
13:00 +36°C° 0 mm 3 mps 746 mmHg 27%
14:00 +36°C° 0 mm 3 mps 746 mmHg 26%
15:00 +36°C° 0 mm 3 mps 746 mmHg 26%
16:00 +36°C° 0 mm 3 mps 745 mmHg 26%
17:00 +34°C° 0 mm 3 mps 745 mmHg 32%
18:00 +31°C° 0 mm 3 mps 745 mmHg 39%
19:00 +29°C° 0 mm 2 mps 745 mmHg 46%
20:00 +27°C° 0 mm 2 mps 745 mmHg 47%
21:00 +26°C° 0 mm 2 mps 745 mmHg 48%
22:00 +25°C° 0 mm 2 mps 744 mmHg 48%
23:00 +24°C° 0 mm 2 mps 744 mmHg 50%

29 June, Tuesday

Time Temperature Precipitation Wind Pressure Humidity
00:00 +24°C° 0 mm 2 mps 744 mmHg 51%
01:00 +23°C° 0 mm 2 mps 744 mmHg 53%
02:00 +23°C° 0 mm 2 mps 744 mmHg 54%
03:00 +21°C° 0 mm 2 mps 744 mmHg 56%
04:00 +21°C° 0 mm 2 mps 744 mmHg 57%
05:00 +24°C° 0 mm 2 mps 744 mmHg 54%
06:00 +26°C° 0 mm 2 mps 744 mmHg 51%
07:00 +28°C° 0 mm 2 mps 744 mmHg 48%
08:00 +30°C° 0 mm 2 mps 744 mmHg 43%
09:00 +32°C° 0 mm 2 mps 744 mmHg 39%
10:00 +35°C° 0 mm 3 mps 744 mmHg 34%
11:00 +36°C° 0 mm 3 mps 744 mmHg 30%
12:00 +38°C° 0 mm 3 mps 743 mmHg 26%
13:00 +39°C° 0 mm 3 mps 743 mmHg 21%
14:00 +39°C° 0 mm 3 mps 742 mmHg 20%
15:00 +39°C° 0 mm 3 mps 742 mmHg 19%
16:00 +41°C° 0 mm 4 mps 742 mmHg 18%
17:00 +37°C° 0 mm 3 mps 742 mmHg 23%
18:00 +35°C° 0 mm 2 mps 741 mmHg 28%
19:00 +32°C° 0 mm 2 mps 741 mmHg 32%
20:00 +30°C° 0 mm 2 mps 741 mmHg 34%
21:00 +28°C° 0 mm 2 mps 742 mmHg 36%
22:00 +26°C° 0 mm 2 mps 742 mmHg 38%
23:00 +25°C° 0 mm 2 mps 742 mmHg 40%

30 June, Wednesday

Time Temperature Precipitation Wind Pressure Humidity
00:00 +25°C° 0 mm 2 mps 742 mmHg 42%
01:00 +24°C° 0 mm 2 mps 742 mmHg 44%
02:00 +24°C° 0 mm 2 mps 742 mmHg 45%
03:00 +23°C° 0 mm 2 mps 742 mmHg 46%
04:00 +23°C° 0 mm 2 mps 742 mmHg 47%
05:00 +25°C° 0 mm 2 mps 742 mmHg 45%
06:00 +27°C° 0 mm 2 mps 742 mmHg 43%
07:00 +28°C° 0 mm 3 mps 742 mmHg 40%
08:00 +30°C° 0 mm 3 mps 742 mmHg 36%
09:00 +33°C° 0 mm 3 mps 742 mmHg 32%
10:00 +35°C° 0 mm 3 mps 742 mmHg 28%
11:00 +36°C° 0 mm 3 mps 742 mmHg 26%
12:00 +37°C° 0 mm 3 mps 742 mmHg 24%
13:00 +38°C° 0 mm 3 mps 742 mmHg 22%
14:00 +38°C° 0 mm 4 mps 741 mmHg 21%
15:00 +38°C° 0 mm 4 mps 741 mmHg 19%
16:00 +38°C° 0 mm 4 mps 741 mmHg 18%
17:00 +36°C° 0 mm 4 mps 741 mmHg 22%
18:00 +34°C° 0 mm 3 mps 741 mmHg 26%
19:00 +31°C° 0 mm 3 mps 741 mmHg 30%
20:00 +29°C° 0 mm 3 mps 741 mmHg 39%
21:00 +27°C° 0 mm 2 mps 741 mmHg 48%
22:00 +25°C° 0 mm 2 mps 742 mmHg 57%
23:00 +24°C° 0 mm 2 mps 742 mmHg 64%
Show more

We Need Your Consent

Meteoprog and our Service Providers may store and access personal data such as cookies, device identifiers or other similar technologies on your device and process such data to personalise content and ads, as well as provide social media features and to analyse the traffic.

  • Store and/or access information on your device

    Cookies, device identifiers or other information can be stored or accessed on your device for the purposes indicated above.

  • Personalised ads and content, ad and content measurement, audience insights, and products development

    Ads and content can be personalised based on a profile. More data can be added to better personalise ads and content. Ad and content performance can be measured. Insights about the audience who saw the ads and content can be derived. Such data can be used to develop or improve user’s experience, systems and software.

By clicking ‘I Agree’ you will allow the use of indicated cookies, device identifiers, web beacons or other similar technologies. Your settings can be changed in the browser on your device.

For certain purposes, legitimate interests may be relied on, rather than consent. You can read more about this in our Privacy and Cookie Policy.